Date String (YYYY-MM-DD hh:mm:ss) UTC,Instrument flags,Ambient pressure (hPa),Sample flow (lpm),Bypass flow (lpm),Sample temperature (°C),Ambient temperature (°C),ASC tube jacket temperature (°C),LED temperature (°C),Box temperature (°C),Sample RH (%),Span deviation,Mass concentration (μg/m³),Mass concentration (μg/m³),Mass concentration (μg/m³)
DateTimeUTC,F1_M11,P_M11,Q1_M11,Q2_M11,T1_M11,T2_M11,T3_M11,T4_M11,T5_M11,U1_M11,ZSPAN_M11,X2_M11,X0_M11,X1_M11
2022-12-26 17:00:00,,0830.8,4.98,0.00,22.1,21.1,00.0,30.9,23.9,18.6,0000.0,0005.05,0007.55,0004.67
2022-12-26 17:01:00,,0830.9,4.98,0.00,22.1,21.1,00.0,30.9,24.0,18.6,0000.0,0005.05,0007.60,0004.68
2022-12-26 17:02:00,,0830.9,5.01,0.00,22.1,21.2,00.0,30.9,24.0,18.6,0000.0,0005.02,0007.55,0004.66
2022-12-26 17:03:00,,0830.9,5.03,0.00,22.1,21.1,00.0,30.9,24.0,18.5,0000.0,0005.01,0007.56,0004.67
2022-12-26 17:04:00,,0830.9,5.01,0.00,22.1,21.2,00.0,30.9,24.0,18.5,0000.0,0005.04,0007.65,0004.67
2022-12-26 17:05:00,,0830.9,4.96,0.00,22.1,21.2,00.0,31.0,24.0,18.6,0000.0,0005.08,0007.72,0004.69
2022-12-26 17:06:00,,0830.8,4.99,0.00,22.1,21.1,00.0,31.0,24.0,18.6,0000.0,0005.06,0007.62,0004.70
2022-12-26 17:07:00,,0830.8,5.02,0.00,22.1,21.1,00.0,31.0,24.0,18.5,0000.0,0005.04,0007.56,0004.70
2022-12-26 17:08:00,,0830.8,5.00,0.00,22.2,21.2,00.0,31.0,24.0,18.6,0000.0,0005.05,0007.56,0004.73
2022-12-26 17:09:00,,0830.8,5.00,0.00,22.2,21.2,00.0,31.0,24.0,18.7,0000.0,0005.08,0007.65,0004.74
2022-12-26 17:10:00,,0830.8,4.96,0.00,22.2,21.1,00.0,31.0,24.0,18.7,0000.0,0005.10,0007.65,0004.76
2022-12-26 17:11:00,,0830.8,5.01,0.00,22.2,21.1,00.0,31.0,24.0,18.5,0000.0,0005.12,0007.61,0004.77
2022-12-26 17:12:00,,0830.8,5.02,0.00,22.2,21.1,00.0,31.0,24.0,18.7,0000.0,0005.11,0007.50,0004.77
2022-12-26 17:13:00,,0830.9,5.01,0.00,22.2,21.1,00.0,31.0,24.0,18.8,0000.0,0005.09,0007.51,0004.77
2022-12-26 17:14:00,,0830.9,4.97,0.00,22.2,21.2,00.0,31.0,24.1,18.8,0000.0,0005.11,0007.63,0004.78
2022-12-26 17:15:00,,0830.8,4.99,0.00,22.2,21.2,00.0,31.0,24.1,18.7,0000.0,0005.09,0007.52,0004.78
2022-12-26 17:16:00,,0830.8,5.00,0.00,22.2,21.1,00.0,31.0,24.1,18.7,0000.0,0005.05,0007.60,0004.76
2022-12-26 17:17:00,,0830.8,5.04,0.00,22.2,21.1,00.0,31.0,24.0,18.8,0000.0,0005.05,0008.15,0004.76
2022-12-26 17:18:00,,0830.8,5.00,0.00,22.2,21.1,00.0,31.0,24.1,18.9,0000.0,0005.09,0008.23,0004.76
2022-12-26 17:19:00,,0830.7,4.98,0.00,22.2,21.1,00.0,31.0,24.1,18.8,0000.0,0005.11,0008.30,0004.75
2022-12-26 17:20:00,,0830.8,4.97,0.00,22.2,21.1,00.0,31.1,24.1,18.7,0000.0,0005.12,0008.29,0004.75
2022-12-26 17:21:00,,0830.8,5.01,0.00,22.2,21.1,00.0,31.1,24.1,18.8,0000.0,0005.10,0008.21,0004.76
2022-12-26 17:22:00,,0830.8,5.02,0.00,22.2,21.1,00.0,31.1,24.1,18.7,0000.0,0005.12,0008.33,0004.78
2022-12-26 17:23:00,,0830.8,4.97,0.00,22.2,21.1,00.0,31.1,24.1,18.8,0000.0,0005.15,0008.46,0004.80
2022-12-26 17:24:00,,0830.7,4.96,0.00,22.2,21.0,00.0,31.1,24.1,18.9,0000.0,0005.19,0008.61,0004.81
2022-12-26 17:25:00,,0830.8,5.01,0.00,22.2,21.0,00.0,31.1,24.1,18.8,0000.0,0005.19,0008.55,0004.81
2022-12-26 17:26:00,,0830.8,5.03,0.00,22.2,21.0,00.0,31.1,24.1,19.0,0000.0,0005.19,0008.55,0004.81
2022-12-26 17:27:00,,0830.8,5.02,0.00,22.2,21.1,00.0,31.1,24.1,18.9,0000.0,0005.19,0008.36,0004.83
2022-12-26 17:28:00,,0830.8,4.98,0.00,22.2,21.1,00.0,31.1,24.1,18.8,0000.0,0005.19,0007.87,0004.84
2022-12-26 17:29:00,,0830.8,4.97,0.00,22.2,21.0,00.0,31.1,24.1,18.7,0000.0,0005.19,0007.86,0004.84
2022-12-26 17:30:00,,0830.8,5.02,0.00,22.2,21.0,00.0,31.1,24.1,18.7,0000.0,0005.16,0007.83,0004.84
2022-12-26 17:31:00,,0830.8,5.03,0.00,22.2,21.0,00.0,31.1,24.1,18.7,0000.0,0005.12,0007.72,0004.84
2022-12-26 17:32:00,,0830.8,5.00,0.00,22.2,21.1,00.0,31.1,24.1,18.7,0000.0,0005.11,0007.69,0004.84
2022-12-26 17:33:00,,0830.7,4.98,0.00,22.2,21.1,00.0,31.1,24.1,18.7,0000.0,0005.10,0007.62,0004.83
2022-12-26 17:34:00,,0830.7,4.99,0.00,22.3,21.1,00.0,31.1,24.1,19.0,0000.0,0005.10,0007.60,0004.82
2022-12-26 17:35:00,,0830.8,5.02,0.00,22.3,21.2,00.0,31.1,24.1,19.0,0000.0,0005.08,0007.48,0004.82
2022-12-26 17:36:00,,0830.8,5.03,0.00,22.3,21.2,00.0,31.1,24.2,18.8,0000.0,0005.06,0007.33,0004.82
2022-12-26 17:37:00,,0830.7,5.00,0.00,22.3,21.2,00.0,31.1,24.2,19.0,0000.0,0005.07,0007.27,0004.83
2022-12-26 17:38:00,,0830.7,4.98,0.00,22.3,21.2,00.0,31.1,24.2,18.8,0000.0,0005.10,0007.37,0004.84
2022-12-26 17:39:00,,0830.6,4.98,0.00,22.3,21.2,00.0,31.1,24.1,18.7,0000.0,0005.11,0007.36,0004.85
2022-12-26 17:40:00,,0830.6,5.02,0.00,22.3,21.2,00.0,31.1,24.1,18.7,0000.0,0005.11,0007.32,0004.85
2022-12-26 17:41:00,,0830.6,5.03,0.00,22.3,21.2,00.0,31.1,24.1,18.9,0000.0,0005.13,0007.30,0004.86
2022-12-26 17:42:00,,0830.6,4.99,0.00,22.3,21.1,00.0,31.1,24.1,18.8,0000.0,0005.14,0007.33,0004.86
2022-12-26 17:43:00,,0830.6,4.97,0.00,22.3,21.1,00.0,31.1,24.1,18.6,0000.0,0005.14,0007.40,0004.86
2022-12-26 17:44:00,,0830.6,5.00,0.00,22.3,21.1,00.0,31.1,24.1,18.9,0000.0,0005.15,0007.38,0004.88
2022-12-26 17:45:00,,0830.6,5.01,0.00,22.3,21.1,00.0,31.1,24.1,18.7,0000.0,0005.14,0007.30,0004.88
2022-12-26 17:46:00,,0830.6,5.03,0.00,22.3,21.2,00.0,31.2,24.1,18.7,0000.0,0005.16,0007.23,0004.88
2022-12-26 17:47:00,,0830.6,4.99,0.00,22.3,21.2,00.0,31.2,24.2,18.8,0000.0,0005.19,0007.36,0004.89
2022-12-26 17:48:00,,0830.6,4.96,0.00,22.3,21.3,00.0,31.2,24.2,18.8,0000.0,0005.20,0007.37,0004.89
2022-12-26 17:49:00,,0830.5,5.01,0.00,22.3,21.3,00.0,31.2,24.2,19.0,0000.0,0005.19,0007.34,0004.90
2022-12-26 17:50:00,,0830.5,5.01,0.00,22.3,21.3,00.0,31.2,24.2,18.9,0000.0,0005.20,0007.38,0004.89
2022-12-26 17:51:00,,0830.5,5.03,0.00,22.3,21.3,00.0,31.2,24.2,19.4,0000.0,0005.22,0007.38,0004.90
2022-12-26 17:52:00,,0830.5,4.96,0.00,22.4,21.4,00.0,31.2,24.2,19.3,0000.0,0005.24,0007.46,0004.93
2022-12-26 17:53:00,,0830.4,4.98,0.00,22.4,21.4,00.0,31.2,24.3,18.9,0000.0,0005.28,0007.50,0004.96
2022-12-26 17:54:00,,0830.4,5.02,0.00,22.4,21.3,00.0,31.2,24.3,18.7,0000.0,0005.31,0007.46,0004.99
2022-12-26 17:55:00,,0830.4,5.03,0.00,22.4,21.4,00.0,31.2,24.3,18.7,0000.0,0005.34,0007.56,0005.01
2022-12-26 17:56:00,,0830.4,4.97,0.00,22.4,21.4,00.0,31.2,24.3,18.4,0000.0,0005.34,0007.51,0005.02
2022-12-26 17:57:00,,0830.3,4.95,0.00,22.4,21.3,00.0,31.2,24.3,18.4,0000.0,0005.38,0007.61,0005.03
2022-12-26 17:58:00,,0830.3,5.01,0.00,22.4,21.4,00.0,31.3,24.3,18.4,0000.0,0005.40,0007.69,0005.04
2022-12-26 17:59:00,,0830.2,5.02,0.00,22.5,21.4,00.0,31.3,24.3,18.5,0000.0,0005.42,0007.87,0005.06
